TimeEDT,TemperatureF,Dew PointF,Humidity,Sea Level PressureIn,VisibilityMPH,Wind Direction,Wind SpeedMPH,Gust SpeedMPH,PrecipitationIn,Events,Conditions,WindDirDegrees,DateUTC
12:54 AM,43.0,37.0,80,30.13,-9999.0,West,11.5,-,N/A,,Unknown,260,2013-05-27 04:54:00
1:54 AM,43.0,37.0,80,30.14,-9999.0,West,13.8,-,N/A,,Unknown,260,2013-05-27 05:54:00
2:54 AM,43.0,37.0,80,30.13,-9999.0,WSW,12.7,-,N/A,,Unknown,250,2013-05-27 06:54:00
3:54 AM,43.0,37.0,80,30.13,-9999.0,WSW,13.8,-,N/A,,Unknown,240,2013-05-27 07:54:00
4:54 AM,43.0,37.9,82,30.13,-9999.0,WSW,12.7,-,N/A,,Unknown,250,2013-05-27 08:54:00
5:54 AM,43.0,37.0,80,30.14,-9999.0,West,15.0,-,N/A,,Unknown,260,2013-05-27 09:54:00
6:54 AM,46.0,37.9,73,30.14,-9999.0,West,16.1,-,N/A,,Unknown,280,2013-05-27 10:54:00
7:54 AM,52.0,39.0,61,30.15,-9999.0,West,11.5,18.4,N/A,,Unknown,280,2013-05-27 11:54:00
8:54 AM,57.9,39.0,49,30.15,-9999.0,WNW,13.8,19.6,N/A,,Unknown,290,2013-05-27 12:54:00
9:54 AM,61.0,37.9,42,30.15,-9999.0,WNW,15.0,21.9,N/A,,Unknown,290,2013-05-27 13:54:00
10:54 AM,64.0,36.0,35,30.14,-9999.0,West,19.6,26.5,N/A,,Unknown,280,2013-05-27 14:54:00
11:54 AM,64.9,30.9,28,30.14,-9999.0,WNW,21.9,29.9,N/A,,Unknown,290,2013-05-27 15:54:00
12:54 PM,68.0,32.0,26,30.12,-9999.0,NW,20.7,27.6,N/A,,Unknown,320,2013-05-27 16:54:00
1:54 PM,68.0,34.0,28,30.12,-9999.0,West,17.3,28.8,N/A,,Unknown,270,2013-05-27 17:54:00
2:54 PM,69.1,35.1,29,30.11,-9999.0,West,16.1,25.3,N/A,,Unknown,270,2013-05-27 18:54:00
3:54 PM,70.0,30.9,24,30.11,-9999.0,WNW,12.7,20.7,N/A,,Unknown,290,2013-05-27 19:54:00
4:54 PM,70.0,33.1,26,30.11,-9999.0,West,13.8,23.0,N/A,,Unknown,260,2013-05-27 20:54:00
5:54 PM,69.1,33.1,26,30.11,-9999.0,West,15.0,21.9,N/A,,Unknown,270,2013-05-27 21:54:00
6:54 PM,66.9,35.1,31,30.12,-9999.0,WNW,10.4,18.4,N/A,,Unknown,300,2013-05-27 22:54:00
7:54 PM,63.0,37.0,38,30.13,-9999.0,West,11.5,-,N/A,,Unknown,280,2013-05-27 23:54:00
8:54 PM,60.1,37.9,44,30.15,-9999.0,NNW,6.9,-,N/A,,Unknown,340,2013-05-28 00:54:00
9:54 PM,62.1,36.0,38,30.17,-9999.0,NW,6.9,-,N/A,,Unknown,310,2013-05-28 01:54:00
10:54 PM,62.1,36.0,38,30.18,-9999.0,NE,4.6,-,N/A,,Unknown,40,2013-05-28 02:54:00
11:54 PM,61.0,35.1,38,30.19,-9999.0,East,4.6,-,N/A,,Unknown,90,2013-05-28 03:54:00